This is the latest recevied weather packets stored in our database for station/object K1BES. If no packets are shown the sender has not sent any weather packets the latest 10 day(s).
| Time | Temp. | Humidity | Pressure | Rain* | Wind** | Luminosity | Snow |
|---|---|---|---|---|---|---|---|
| 1788370515 | 32.22° C | 68% | 1017.4 hPa | 0 mm | - | 1088 W/m² | - |
| 1788370215 | 32.22° C | 72% | 1017.4 hPa | 0 mm | - | 1062 W/m² | - |
| 1788369915 | 31.11° C | 74% | 1017.3 hPa | 0 mm | - | 904 W/m² | - |
| 1788369610 | 30.56° C | 73% | 1017.4 hPa | 0 mm | - | 1099 W/m² | - |
| 1788369328 | 31.11° C | 72% | 1017.6 hPa | 0 mm | - | 194 W/m² | - |
| 1788369002 | 31.11° C | 70% | 1017.5 hPa | 0 mm | - | 243 W/m² | - |
| 1788368696 | 31.67° C | 70% | 1017.5 hPa | 0 mm | - | 449 W/m² | - |
| 1788368392 | 32.78° C | 67% | 1017.6 hPa | 0 mm | - | 144 W/m² | - |
| 1788368091 | 33.33° C | 62% | 1017.9 hPa | 0 mm | - | 186 W/m² | - |
| 1788367786 | 33.33° C | 62% | 1017.9 hPa | 0 mm | - | 1027 W/m² | - |
| 1788367481 | 32.78° C | 65% | 1017.8 hPa | 0 mm | - | 997 W/m² | - |
| 1788367180 | 32.78° C | 63% | 1017.9 hPa | 0 mm | - | 1036 W/m² | - |
| 1788366876 | 32.78° C | 63% | 1018.1 hPa | 0 mm | - | 997 W/m² | - |
| 1788366573 | 32.78° C | 65% | 1018 hPa | 0 mm | - | 976 W/m² | - |
| 1788366269 | 32.78° C | 64% | 1018 hPa | 0 mm | - | 960 W/m² | - |
| 1788365969 | 32.78° C | 64% | 1018.2 hPa | 0 mm | - | 968 W/m² | - |
| 1788365664 | 32.78° C | 68% | 1018.1 hPa | 0 mm | - | 985 W/m² | - |
| 1788365360 | 32.22° C | 67% | 1018.3 hPa | 0 mm | - | 969 W/m² | - |
| 1788365055 | 32.78° C | 65% | 1018.2 hPa | 0 mm | - | 987 W/m² | - |
| 1788364753 | 32.78° C | 67% | 1018.3 hPa | 0 mm | - | 926 W/m² | - |
| 1788364449 | 32.22° C | 71% | 1018.2 hPa | 0 mm | - | 932 W/m² | - |
| 1788364142 | 32.22° C | 68% | 1018.1 hPa | 0 mm | - | 914 W/m² | - |
| 1788363838 | 32.22° C | 69% | 1018.2 hPa | 0 mm | - | 880 W/m² | - |
| 1788363537 | 31.67° C | 70% | 1018.3 hPa | 0 mm | - | 878 W/m² | - |
| 1788363251 | 31.67° C | 73% | 1018.4 hPa | 0 mm | - | 865 W/m² | - |
* Rain latest hour (hover to see other rain measurements)
** Current wind speed in m/s (hover to see current wind gust speed)